Погода в Портленде

США     43˚39′26″N   70˚16′09″W
темп.,
°C
ветер,
м/с
пор.,
м/с
влажн.,
%
обл.,
%
осадки,
мм/ч
давл.,
гПа
погр.,
м
17 января, вс
вс1701:00+2˚зюз6157974 0.0 986824
04:00+2˚зюз7137264 0.0 9881033
07:00+1˚зюз7156881 0.0 9891174
10:00+3˚зюз71560100 0.0 9901477
13:00+4˚з8155799 0.0 9911863
16:00+4˚з6145987 0.0 9931628
19:00+2˚з6156660 0.0 9971340
22:00+1˚зюз714640 0.0 9991105
18 января, пн
пн1801:00зюз513660 0.0 1000982
04:00зюз513680 0.0 1000960
07:00зюз6136528 0.0 1001888
10:00+1˚зюз6105979 0.0 1002926
13:00+3˚з595489 0.0 10001103
16:00+1˚з5958100 0.0 1001873
19:00−1˚зсз266881 0.0 1004336
22:00−2˚ссз256721 0.0 1006376
19 января, вт
вт1901:00−4˚сз355911 0.0 1008372
04:00−4˚сз24580 0.0 1010340
07:00−5˚ссз35570 0.0 1013279
10:00−3˚сз24450 0.0 1014358
13:00−1˚сз233621 0.0 1014608
16:00−1˚сз1240100 0.0 1014524
19:00−2˚з014875 0.0 1015114
22:00−2˚зюз125180 0.0 1013211
20 января, ср
ср2001:00−2˚юз275990 0.0 1010612
04:00−1˚зюз3872100 0.1 1008992
07:00−3˚сз3773100 0.1 1008496
10:00−2˚сз355260 0.0 10071029
13:00−1˚зсз474176 0.1 10071830
16:00−3˚сз5949100 0.2 10081548
19:00−6˚ссз6124664 0.3 10111316
22:00−7˚ссз511470 0.0 1012945
21 января, чт
чт2101:00−8˚зсз35480 0.0 1013715
04:00−9˚зсз235052 0.0 1013399
07:00−9˚зсз125138 0.0 1012333
10:00−7˚юз224376 0.0 1010611
13:00−5˚ююз243288 0.0 1006736
16:00−4˚ююз2657100 0.0 1004933
19:00−3˚сз015396 0.0 100256
22:00−3˚ююз116388 0.0 100049